owner,sensor,date,latitude,longitude,relative_humidity,qcFlag 
COMPS,ioos:station:USF.COMPS:C12:1,2019-08-01T00:35:00,27.4980,-83.7220,77.2,11111222 
COMPS,ioos:station:USF.COMPS:C12:1,2019-08-01T01:35:00,27.4980,-83.7220,86.52,11111222 
COMPS,ioos:station:USF.COMPS:C12:1,2019-08-01T02:35:00,27.4980,-83.7220,82.72,11111222 
COMPS,ioos:station:USF.COMPS:C12:1,2019-08-01T03:35:00,27.4980,-83.7220,71.67,11111222 
COMPS,ioos:station:USF.COMPS:C12:1,2019-08-01T04:35:00,27.4980,-83.7220,68.25,11111222 
COMPS,ioos:station:USF.COMPS:C12:1,2019-08-01T05:35:00,27.4980,-83.7220,61.61,11111222 
COMPS,ioos:station:USF.COMPS:C12:1,2019-08-01T06:35:00,27.4980,-83.7220,63.72,11111222 
COMPS,ioos:station:USF.COMPS:C12:1,2019-08-01T07:35:00,27.4980,-83.7220,75.54,11111222 
COMPS,ioos:station:USF.COMPS:C12:1,2019-08-01T08:35:00,27.4980,-83.7220,73.98,11111222 
COMPS,ioos:station:USF.COMPS:C12:1,2019-08-01T09:35:00,27.4980,-83.7220,74.74,11111222 
COMPS,ioos:station:USF.COMPS:C12:1,2019-08-01T10:35:00,27.4980,-83.7220,75.46,11111222 
COMPS,ioos:station:USF.COMPS:C12:1,2019-08-01T11:35:00,27.4980,-83.7220,77.73,11111222 
COMPS,ioos:station:USF.COMPS:C12:1,2019-08-01T12:35:00,27.4980,-83.7220,76.34,11111222 
COMPS,ioos:station:USF.COMPS:C12:1,2019-08-01T13:35:00,27.4980,-83.7220,75.48,11111222 
COMPS,ioos:station:USF.COMPS:C12:1,2019-08-01T14:35:00,27.4980,-83.7220,74.66,11111222 
COMPS,ioos:station:USF.COMPS:C12:1,2019-08-01T15:35:00,27.4980,-83.7220,72.22,11111222 
COMPS,ioos:station:USF.COMPS:C12:1,2019-08-01T16:35:00,27.4980,-83.7220,72.13,11111222 
COMPS,ioos:station:USF.COMPS:C12:1,2019-08-01T17:35:00,27.4980,-83.7220,75.67,11111222 
COMPS,ioos:station:USF.COMPS:C12:1,2019-08-01T18:35:00,27.4980,-83.7220,76.07,11111222 
COMPS,ioos:station:USF.COMPS:C12:1,2019-08-01T19:35:00,27.4980,-83.7220,73.5,11111222 
COMPS,ioos:station:USF.COMPS:C12:1,2019-08-01T20:35:00,27.4980,-83.7220,69.36,11111222 
COMPS,ioos:station:USF.COMPS:C12:1,2019-08-01T21:35:00,27.4980,-83.7220,71.41,11111222 
COMPS,ioos:station:USF.COMPS:C12:1,2019-08-01T22:35:00,27.4980,-83.7220,69.09,11111222 
COMPS,ioos:station:USF.COMPS:C12:1,2019-08-01T23:35:00,27.4980,-83.7220,74.65,11111222 
COMPS,ioos:station:USF.COMPS:C12:1,2019-08-02T00:35:00,27.4980,-83.7220,82.3,11111222 
COMPS,ioos:station:USF.COMPS:C12:1,2019-08-02T01:35:00,27.4980,-83.7220,84.13,11111222 
COMPS,ioos:station:USF.COMPS:C12:1,2019-08-02T02:35:00,27.4980,-83.7220,84.88,11111222 
COMPS,ioos:station:USF.COMPS:C12:1,2019-08-02T03:35:00,27.4980,-83.7220,82.75,11111222 
COMPS,ioos:station:USF.COMPS:C12:1,2019-08-02T04:35:00,27.4980,-83.7220,83.38,11111222 
COMPS,ioos:station:USF.COMPS:C12:1,2019-08-02T05:35:00,27.4980,-83.7220,83.88,11111222 
COMPS,ioos:station:USF.COMPS:C12:1,2019-08-02T06:35:00,27.4980,-83.7220,82.48,11111222 
COMPS,ioos:station:USF.COMPS:C12:1,2019-08-02T07:35:00,27.4980,-83.7220,80.63,11111222 
COMPS,ioos:station:USF.COMPS:C12:1,2019-08-02T08:35:00,27.4980,-83.7220,81.52,11111222 
COMPS,ioos:station:USF.COMPS:C12:1,2019-08-02T09:35:00,27.4980,-83.7220,81.29,11111222 
COMPS,ioos:station:USF.COMPS:C12:1,2019-08-02T10:35:00,27.4980,-83.7220,82.17,11111222 
COMPS,ioos:station:USF.COMPS:C12:1,2019-08-02T11:35:00,27.4980,-83.7220,82.39,11111222 
COMPS,ioos:station:USF.COMPS:C12:1,2019-08-02T12:35:00,27.4980,-83.7220,84.26,11111222 
COMPS,ioos:station:USF.COMPS:C12:1,2019-08-02T13:35:00,27.4980,-83.7220,80.26,11111222 
COMPS,ioos:station:USF.COMPS:C12:1,2019-08-02T14:35:00,27.4980,-83.7220,75.31,11111222 
COMPS,ioos:station:USF.COMPS:C12:1,2019-08-02T15:35:00,27.4980,-83.7220,78.62,11111222 
COMPS,ioos:station:USF.COMPS:C12:1,2019-08-02T16:35:00,27.4980,-83.7220,79.25,11111222 
COMPS,ioos:station:USF.COMPS:C12:1,2019-08-02T17:35:00,27.4980,-83.7220,80.6,11111222 
COMPS,ioos:station:USF.COMPS:C12:1,2019-08-02T18:35:00,27.4980,-83.7220,83.04,11111222 
COMPS,ioos:station:USF.COMPS:C12:1,2019-08-02T19:35:00,27.4980,-83.7220,79.57,11111222 
COMPS,ioos:station:USF.COMPS:C12:1,2019-08-02T20:35:00,27.4980,-83.7220,79.97,11111222 
COMPS,ioos:station:USF.COMPS:C12:1,2019-08-02T21:35:00,27.4980,-83.7220,79.56,11111222 
COMPS,ioos:station:USF.COMPS:C12:1,2019-08-02T22:35:00,27.4980,-83.7220,79.45,11111222 
COMPS,ioos:station:USF.COMPS:C12:1,2019-08-03T01:35:00,27.4980,-83.7220,78.63,11111222 
COMPS,ioos:station:USF.COMPS:C12:1,2019-08-03T02:35:00,27.4980,-83.7220,85.05,11111222 
COMPS,ioos:station:USF.COMPS:C12:1,2019-08-03T03:35:00,27.4980,-83.7220,84.48,11111222 
COMPS,ioos:station:USF.COMPS:C12:1,2019-08-03T04:35:00,27.4980,-83.7220,83.05,11111222 
COMPS,ioos:station:USF.COMPS:C12:1,2019-08-03T05:35:00,27.4980,-83.7220,83.76,11111222 
COMPS,ioos:station:USF.COMPS:C12:1,2019-08-03T06:35:00,27.4980,-83.7220,85.1,11111222 
COMPS,ioos:station:USF.COMPS:C12:1,2019-08-03T07:35:00,27.4980,-83.7220,84.33,11111222 
COMPS,ioos:station:USF.COMPS:C12:1,2019-08-03T08:35:00,27.4980,-83.7220,82.34,11111222 
COMPS,ioos:station:USF.COMPS:C12:1,2019-08-03T09:35:00,27.4980,-83.7220,80.14,11111222 
COMPS,ioos:station:USF.COMPS:C12:1,2019-08-03T10:35:00,27.4980,-83.7220,79.27,11111222 
COMPS,ioos:station:USF.COMPS:C12:1,2019-08-03T11:35:00,27.4980,-83.7220,79.75,11111222 
COMPS,ioos:station:USF.COMPS:C12:1,2019-08-03T12:35:00,27.4980,-83.7220,79.52,11111222 
COMPS,ioos:station:USF.COMPS:C12:1,2019-08-03T13:35:00,27.4980,-83.7220,77.89,11111222 
COMPS,ioos:station:USF.COMPS:C12:1,2019-08-03T14:35:00,27.4980,-83.7220,78.31,11111222 
COMPS,ioos:station:USF.COMPS:C12:1,2019-08-03T15:35:00,27.4980,-83.7220,78.53,11111222 
COMPS,ioos:station:USF.COMPS:C12:1,2019-08-03T16:35:00,27.4980,-83.7220,81.55,11111222 
COMPS,ioos:station:USF.COMPS:C12:1,2019-08-03T17:35:00,27.4980,-83.7220,79.99,11111222 
COMPS,ioos:station:USF.COMPS:C12:1,2019-08-03T18:35:00,27.4980,-83.7220,78.85,11111222 
COMPS,ioos:station:USF.COMPS:C12:1,2019-08-03T19:35:00,27.4980,-83.7220,80.76,11111222 
COMPS,ioos:station:USF.COMPS:C12:1,2019-08-03T20:35:00,27.4980,-83.7220,78.36,11111222 
COMPS,ioos:station:USF.COMPS:C12:1,2019-08-03T21:35:00,27.4980,-83.7220,78.44,11111222 
COMPS,ioos:station:USF.COMPS:C12:1,2019-08-03T22:35:00,27.4980,-83.7220,78.27,11111222 
COMPS,ioos:station:USF.COMPS:C12:1,2019-08-04T01:35:00,27.4980,-83.7220,76.19,11111222 
COMPS,ioos:station:USF.COMPS:C12:1,2019-08-04T02:35:00,27.4980,-83.7220,76.56,11111222 
COMPS,ioos:station:USF.COMPS:C12:1,2019-08-04T03:35:00,27.4980,-83.7220,76.45,11111222 
COMPS,ioos:station:USF.COMPS:C12:1,2019-08-04T04:35:00,27.4980,-83.7220,76.14,11111222 
COMPS,ioos:station:USF.COMPS:C12:1,2019-08-04T05:35:00,27.4980,-83.7220,77.11,11111222 
COMPS,ioos:station:USF.COMPS:C12:1,2019-08-04T06:35:00,27.4980,-83.7220,76.5,11111222 
COMPS,ioos:station:USF.COMPS:C12:1,2019-08-04T07:35:00,27.4980,-83.7220,77.51,11111222 
COMPS,ioos:station:USF.COMPS:C12:1,2019-08-04T08:35:00,27.4980,-83.7220,77.08,11111222 
COMPS,ioos:station:USF.COMPS:C12:1,2019-08-04T09:35:00,27.4980,-83.7220,75.56,11111222 
COMPS,ioos:station:USF.COMPS:C12:1,2019-08-04T10:35:00,27.4980,-83.7220,75.86,11111222 
COMPS,ioos:station:USF.COMPS:C12:1,2019-08-04T11:35:00,27.4980,-83.7220,76.28,11111222 
COMPS,ioos:station:USF.COMPS:C12:1,2019-08-04T12:35:00,27.4980,-83.7220,75.5,11111222 
COMPS,ioos:station:USF.COMPS:C12:1,2019-08-04T13:35:00,27.4980,-83.7220,74.39,11111222 
COMPS,ioos:station:USF.COMPS:C12:1,2019-08-04T14:35:00,27.4980,-83.7220,73.71,11111222 
COMPS,ioos:station:USF.COMPS:C12:1,2019-08-04T15:35:00,27.4980,-83.7220,74.15,11111222 
COMPS,ioos:station:USF.COMPS:C12:1,2019-08-04T16:35:00,27.4980,-83.7220,75.5,11111222 
COMPS,ioos:station:USF.COMPS:C12:1,2019-08-04T17:35:00,27.4980,-83.7220,74.89,11111222 
COMPS,ioos:station:USF.COMPS:C12:1,2019-08-04T18:35:00,27.4980,-83.7220,70.85,11111222 
COMPS,ioos:station:USF.COMPS:C12:1,2019-08-04T19:35:00,27.4980,-83.7220,71.28,11111222 
COMPS,ioos:station:USF.COMPS:C12:1,2019-08-04T20:35:00,27.4980,-83.7220,73.91,11111222 
COMPS,ioos:station:USF.COMPS:C12:1,2019-08-04T21:35:00,27.4980,-83.7220,71.47,11111222 
COMPS,ioos:station:USF.COMPS:C12:1,2019-08-04T22:35:00,27.4980,-83.7220,73.56,11111222 
COMPS,ioos:station:USF.COMPS:C12:1,2019-08-04T23:35:00,27.4980,-83.7220,72.53,11111222 
COMPS,ioos:station:USF.COMPS:C12:1,2019-08-05T00:35:00,27.4980,-83.7220,74.59,11111222 
COMPS,ioos:station:USF.COMPS:C12:1,2019-08-05T01:35:00,27.4980,-83.7220,75.77,11111222 
COMPS,ioos:station:USF.COMPS:C12:1,2019-08-05T02:35:00,27.4980,-83.7220,74.17,11111222 
COMPS,ioos:station:USF.COMPS:C12:1,2019-08-05T03:35:00,27.4980,-83.7220,74.73,11111222 
COMPS,ioos:station:USF.COMPS:C12:1,2019-08-05T04:35:00,27.4980,-83.7220,75.24,11111222 
COMPS,ioos:station:USF.COMPS:C12:1,2019-08-05T05:35:00,27.4980,-83.7220,77.08,11111222 
COMPS,ioos:station:USF.COMPS:C12:1,2019-08-05T06:35:00,27.4980,-83.7220,77.86,11111222 
COMPS,ioos:station:USF.COMPS:C12:1,2019-08-05T07:35:00,27.4980,-83.7220,74.41,11111222 
COMPS,ioos:station:USF.COMPS:C12:1,2019-08-05T08:35:00,27.4980,-83.7220,76.59,11111222 
COMPS,ioos:station:USF.COMPS:C12:1,2019-08-05T09:35:00,27.4980,-83.7220,77.44,11111222 
COMPS,ioos:station:USF.COMPS:C12:1,2019-08-05T10:35:00,27.4980,-83.7220,81.23,11111222 
COMPS,ioos:station:USF.COMPS:C12:1,2019-08-05T11:35:00,27.4980,-83.7220,79.88,11111222 
COMPS,ioos:station:USF.COMPS:C12:1,2019-08-05T12:35:00,27.4980,-83.7220,76.68,11111222 
COMPS,ioos:station:USF.COMPS:C12:1,2019-08-05T13:35:00,27.4980,-83.7220,81.25,11111222 
COMPS,ioos:station:USF.COMPS:C12:1,2019-08-05T14:35:00,27.4980,-83.7220,75.64,11111222 
COMPS,ioos:station:USF.COMPS:C12:1,2019-08-05T15:35:00,27.4980,-83.7220,74.63,11111222 
COMPS,ioos:station:USF.COMPS:C12:1,2019-08-05T16:35:00,27.4980,-83.7220,72.04,11111222 
COMPS,ioos:station:USF.COMPS:C12:1,2019-08-05T17:35:00,27.4980,-83.7220,72.87,11111222 
COMPS,ioos:station:USF.COMPS:C12:1,2019-08-05T18:35:00,27.4980,-83.7220,74.29,11111222 
COMPS,ioos:station:USF.COMPS:C12:1,2019-08-05T19:35:00,27.4980,-83.7220,75.05,11111222 
COMPS,ioos:station:USF.COMPS:C12:1,2019-08-05T20:35:00,27.4980,-83.7220,72.41,11111222 
COMPS,ioos:station:USF.COMPS:C12:1,2019-08-05T21:35:00,27.4980,-83.7220,68.83,11111222 
COMPS,ioos:station:USF.COMPS:C12:1,2019-08-05T22:35:00,27.4980,-83.7220,68.83,11111222 
COMPS,ioos:station:USF.COMPS:C12:1,2019-08-05T23:35:00,27.4980,-83.7220,69.57,11111222 
COMPS,ioos:station:USF.COMPS:C12:1,2019-08-06T00:35:00,27.4980,-83.7220,71.57,11111222 
COMPS,ioos:station:USF.COMPS:C12:1,2019-08-06T01:35:00,27.4980,-83.7220,73.83,11111222 
COMPS,ioos:station:USF.COMPS:C12:1,2019-08-06T02:35:00,27.4980,-83.7220,73.85,11111222 
COMPS,ioos:station:USF.COMPS:C12:1,2019-08-06T03:35:00,27.4980,-83.7220,75.92,11111222 
COMPS,ioos:station:USF.COMPS:C12:1,2019-08-06T04:35:00,27.4980,-83.7220,77.29,11111222 
COMPS,ioos:station:USF.COMPS:C12:1,2019-08-06T05:35:00,27.4980,-83.7220,84.96,11111222 
COMPS,ioos:station:USF.COMPS:C12:1,2019-08-06T06:35:00,27.4980,-83.7220,82.61,11111222 
COMPS,ioos:station:USF.COMPS:C12:1,2019-08-06T07:35:00,27.4980,-83.7220,75.78,11111222 
COMPS,ioos:station:USF.COMPS:C12:1,2019-08-06T08:35:00,27.4980,-83.7220,75.96,11111222 
COMPS,ioos:station:USF.COMPS:C12:1,2019-08-06T09:35:00,27.4980,-83.7220,79.83,11111222 
COMPS,ioos:station:USF.COMPS:C12:1,2019-08-06T10:35:00,27.4980,-83.7220,79.65,11111222 
COMPS,ioos:station:USF.COMPS:C12:1,2019-08-06T11:35:00,27.4980,-83.7220,78.32,11111222 
COMPS,ioos:station:USF.COMPS:C12:1,2019-08-06T12:35:00,27.4980,-83.7220,76.73,11111222 
COMPS,ioos:station:USF.COMPS:C12:1,2019-08-06T13:35:00,27.4980,-83.7220,76.82,11111222 
COMPS,ioos:station:USF.COMPS:C12:1,2019-08-06T14:35:00,27.4980,-83.7220,74.8,11111222 
COMPS,ioos:station:USF.COMPS:C12:1,2019-08-06T15:35:00,27.4980,-83.7220,76.98,11111222 
COMPS,ioos:station:USF.COMPS:C12:1,2019-08-06T16:35:00,27.4980,-83.7220,78.28,11111222 
COMPS,ioos:station:USF.COMPS:C12:1,2019-08-06T17:35:00,27.4980,-83.7220,77.27,11111222 
COMPS,ioos:station:USF.COMPS:C12:1,2019-08-06T18:35:00,27.4980,-83.7220,80.82,11111222 
COMPS,ioos:station:USF.COMPS:C12:1,2019-08-06T19:35:00,27.4980,-83.7220,78.36,11111222 
COMPS,ioos:station:USF.COMPS:C12:1,2019-08-06T20:35:00,27.4980,-83.7220,78.01,11111222 
COMPS,ioos:station:USF.COMPS:C12:1,2019-08-06T21:35:00,27.4980,-83.7220,80.44,11111222 
COMPS,ioos:station:USF.COMPS:C12:1,2019-08-06T22:35:00,27.4980,-83.7220,73.79,11111222 
COMPS,ioos:station:USF.COMPS:C12:1,2019-08-06T23:35:00,27.4980,-83.7220,74.49,11111222 
COMPS,ioos:station:USF.COMPS:C12:1,2019-08-07T00:35:00,27.4980,-83.7220,76.23,11111222 
COMPS,ioos:station:USF.COMPS:C12:1,2019-08-07T01:35:00,27.4980,-83.7220,77.43,11111222 
COMPS,ioos:station:USF.COMPS:C12:1,2019-08-07T02:35:00,27.4980,-83.7220,81.0,11111222 
COMPS,ioos:station:USF.COMPS:C12:1,2019-08-07T03:35:00,27.4980,-83.7220,80.41,11111222 
COMPS,ioos:station:USF.COMPS:C12:1,2019-08-07T04:35:00,27.4980,-83.7220,80.25,11111222 
COMPS,ioos:station:USF.COMPS:C12:1,2019-08-07T05:35:00,27.4980,-83.7220,79.76,11111222 
COMPS,ioos:station:USF.COMPS:C12:1,2019-08-07T06:35:00,27.4980,-83.7220,83.38,11111222 
COMPS,ioos:station:USF.COMPS:C12:1,2019-08-07T07:35:00,27.4980,-83.7220,81.75,11111222 
COMPS,ioos:station:USF.COMPS:C12:1,2019-08-07T08:35:00,27.4980,-83.7220,81.26,11111222 
COMPS,ioos:station:USF.COMPS:C12:1,2019-08-07T09:35:00,27.4980,-83.7220,80.09,11111222 
COMPS,ioos:station:USF.COMPS:C12:1,2019-08-07T10:35:00,27.4980,-83.7220,80.47,11111222 
COMPS,ioos:station:USF.COMPS:C12:1,2019-08-07T11:35:00,27.4980,-83.7220,82.1,11111222 
COMPS,ioos:station:USF.COMPS:C12:1,2019-08-07T12:35:00,27.4980,-83.7220,81.71,11111222 
COMPS,ioos:station:USF.COMPS:C12:1,2019-08-07T13:35:00,27.4980,-83.7220,78.27,11111222 
COMPS,ioos:station:USF.COMPS:C12:1,2019-08-07T14:35:00,27.4980,-83.7220,77.81,11111222 
COMPS,ioos:station:USF.COMPS:C12:1,2019-08-07T15:35:00,27.4980,-83.7220,78.94,11111222 
COMPS,ioos:station:USF.COMPS:C12:1,2019-08-07T16:35:00,27.4980,-83.7220,80.85,11111222 
COMPS,ioos:station:USF.COMPS:C12:1,2019-08-07T17:35:00,27.4980,-83.7220,78.07,11111222 
COMPS,ioos:station:USF.COMPS:C12:1,2019-08-07T18:35:00,27.4980,-83.7220,78.98,11111222 
COMPS,ioos:station:USF.COMPS:C12:1,2019-08-07T19:35:00,27.4980,-83.7220,78.84,11111222 
COMPS,ioos:station:USF.COMPS:C12:1,2019-08-07T20:35:00,27.4980,-83.7220,78.57,11111222 
COMPS,ioos:station:USF.COMPS:C12:1,2019-08-07T21:35:00,27.4980,-83.7220,81.41,11111222 
COMPS,ioos:station:USF.COMPS:C12:1,2019-08-07T22:35:00,27.4980,-83.7220,78.68,11111222 
COMPS,ioos:station:USF.COMPS:C12:1,2019-08-07T23:35:00,27.4980,-83.7220,78.03,11111222 
COMPS,ioos:station:USF.COMPS:C12:1,2019-08-08T01:35:00,27.4980,-83.7220,82.39,11111222 
COMPS,ioos:station:USF.COMPS:C12:1,2019-08-08T02:35:00,27.4980,-83.7220,83.53,11111222 
COMPS,ioos:station:USF.COMPS:C12:1,2019-08-08T03:35:00,27.4980,-83.7220,81.11,11111222 
COMPS,ioos:station:USF.COMPS:C12:1,2019-08-08T06:35:00,27.4980,-83.7220,84.32,11111222 
COMPS,ioos:station:USF.COMPS:C12:1,2019-08-08T07:35:00,27.4980,-83.7220,84.3,11111222 
COMPS,ioos:station:USF.COMPS:C12:1,2019-08-08T08:35:00,27.4980,-83.7220,83.31,11111222 
COMPS,ioos:station:USF.COMPS:C12:1,2019-08-08T09:35:00,27.4980,-83.7220,83.3,11111222 
COMPS,ioos:station:USF.COMPS:C12:1,2019-08-08T10:35:00,27.4980,-83.7220,82.69,11111222 
COMPS,ioos:station:USF.COMPS:C12:1,2019-08-08T11:35:00,27.4980,-83.7220,83.1,11111222 
COMPS,ioos:station:USF.COMPS:C12:1,2019-08-08T12:35:00,27.4980,-83.7220,81.64,11111222 
COMPS,ioos:station:USF.COMPS:C12:1,2019-08-08T13:35:00,27.4980,-83.7220,80.17,11111222 
COMPS,ioos:station:USF.COMPS:C12:1,2019-08-08T14:35:00,27.4980,-83.7220,81.11,11111222 
COMPS,ioos:station:USF.COMPS:C12:1,2019-08-08T15:35:00,27.4980,-83.7220,80.91,11111222 
COMPS,ioos:station:USF.COMPS:C12:1,2019-08-08T16:35:00,27.4980,-83.7220,78.75,11111222 
COMPS,ioos:station:USF.COMPS:C12:1,2019-08-08T17:35:00,27.4980,-83.7220,81.54,11111222 
COMPS,ioos:station:USF.COMPS:C12:1,2019-08-08T18:35:00,27.4980,-83.7220,81.57,11111222 
COMPS,ioos:station:USF.COMPS:C12:1,2019-08-08T19:35:00,27.4980,-83.7220,79.98,11111222 
COMPS,ioos:station:USF.COMPS:C12:1,2019-08-08T20:35:00,27.4980,-83.7220,82.03,11111222 
COMPS,ioos:station:USF.COMPS:C12:1,2019-08-08T21:35:00,27.4980,-83.7220,77.33,11111222 
COMPS,ioos:station:USF.COMPS:C12:1,2019-08-08T22:35:00,27.4980,-83.7220,78.46,11111222 
COMPS,ioos:station:USF.COMPS:C12:1,2019-08-08T23:35:00,27.4980,-83.7220,73.29,11111222 
COMPS,ioos:station:USF.COMPS:C12:1,2019-08-09T00:35:00,27.4980,-83.7220,79.02,11111222 
COMPS,ioos:station:USF.COMPS:C12:1,2019-08-09T01:35:00,27.4980,-83.7220,79.44,11111222 
COMPS,ioos:station:USF.COMPS:C12:1,2019-08-09T02:35:00,27.4980,-83.7220,80.8,11111222 
COMPS,ioos:station:USF.COMPS:C12:1,2019-08-09T03:35:00,27.4980,-83.7220,82.24,11111222 
COMPS,ioos:station:USF.COMPS:C12:1,2019-08-09T04:35:00,27.4980,-83.7220,82.02,11111222 
COMPS,ioos:station:USF.COMPS:C12:1,2019-08-09T05:35:00,27.4980,-83.7220,82.37,11111222 
COMPS,ioos:station:USF.COMPS:C12:1,2019-08-09T06:35:00,27.4980,-83.7220,81.17,11111222 
COMPS,ioos:station:USF.COMPS:C12:1,2019-08-09T07:35:00,27.4980,-83.7220,81.46,11111222 
COMPS,ioos:station:USF.COMPS:C12:1,2019-08-09T08:35:00,27.4980,-83.7220,79.54,11111222 
COMPS,ioos:station:USF.COMPS:C12:1,2019-08-09T09:35:00,27.4980,-83.7220,79.0,11111222 
COMPS,ioos:station:USF.COMPS:C12:1,2019-08-09T10:35:00,27.4980,-83.7220,79.05,11111222 
COMPS,ioos:station:USF.COMPS:C12:1,2019-08-09T11:35:00,27.4980,-83.7220,79.52,11111222 
COMPS,ioos:station:USF.COMPS:C12:1,2019-08-09T12:35:00,27.4980,-83.7220,78.66,11111222 
COMPS,ioos:station:USF.COMPS:C12:1,2019-08-09T13:35:00,27.4980,-83.7220,78.56,11111222 
COMPS,ioos:station:USF.COMPS:C12:1,2019-08-09T14:35:00,27.4980,-83.7220,78.32,11111222 
COMPS,ioos:station:USF.COMPS:C12:1,2019-08-09T15:35:00,27.4980,-83.7220,76.99,11111222 
COMPS,ioos:station:USF.COMPS:C12:1,2019-08-09T16:35:00,27.4980,-83.7220,77.35,11111222 
COMPS,ioos:station:USF.COMPS:C12:1,2019-08-09T17:35:00,27.4980,-83.7220,77.78,11111222 
COMPS,ioos:station:USF.COMPS:C12:1,2019-08-09T18:35:00,27.4980,-83.7220,79.73,11111222 
COMPS,ioos:station:USF.COMPS:C12:1,2019-08-09T19:35:00,27.4980,-83.7220,79.85,11111222 
COMPS,ioos:station:USF.COMPS:C12:1,2019-08-09T20:35:00,27.4980,-83.7220,80.58,11111222 
COMPS,ioos:station:USF.COMPS:C12:1,2019-08-09T21:35:00,27.4980,-83.7220,76.35,11111222 
COMPS,ioos:station:USF.COMPS:C12:1,2019-08-09T22:35:00,27.4980,-83.7220,81.9,11111222 
COMPS,ioos:station:USF.COMPS:C12:1,2019-08-09T23:35:00,27.4980,-83.7220,80.89,11111222 
COMPS,ioos:station:USF.COMPS:C12:1,2019-08-10T00:35:00,27.4980,-83.7220,81.9,11111222 
COMPS,ioos:station:USF.COMPS:C12:1,2019-08-10T01:35:00,27.4980,-83.7220,81.27,11111222 
COMPS,ioos:station:USF.COMPS:C12:1,2019-08-10T02:35:00,27.4980,-83.7220,85.09,11111222 
COMPS,ioos:station:USF.COMPS:C12:1,2019-08-10T03:35:00,27.4980,-83.7220,84.93,11111222 
COMPS,ioos:station:USF.COMPS:C12:1,2019-08-10T04:35:00,27.4980,-83.7220,83.99,11111222 
COMPS,ioos:station:USF.COMPS:C12:1,2019-08-10T05:35:00,27.4980,-83.7220,83.74,11111222 
COMPS,ioos:station:USF.COMPS:C12:1,2019-08-10T06:35:00,27.4980,-83.7220,82.97,11111222 
COMPS,ioos:station:USF.COMPS:C12:1,2019-08-10T07:35:00,27.4980,-83.7220,82.08,11111222 
COMPS,ioos:station:USF.COMPS:C12:1,2019-08-10T08:35:00,27.4980,-83.7220,82.5,11111222 
COMPS,ioos:station:USF.COMPS:C12:1,2019-08-10T09:35:00,27.4980,-83.7220,83.68,11111222 
COMPS,ioos:station:USF.COMPS:C12:1,2019-08-10T10:35:00,27.4980,-83.7220,80.03,11111222 
COMPS,ioos:station:USF.COMPS:C12:1,2019-08-10T11:35:00,27.4980,-83.7220,81.68,11111222 
COMPS,ioos:station:USF.COMPS:C12:1,2019-08-10T12:35:00,27.4980,-83.7220,81.34,11111222 
COMPS,ioos:station:USF.COMPS:C12:1,2019-08-10T13:35:00,27.4980,-83.7220,83.06,11111222 
COMPS,ioos:station:USF.COMPS:C12:1,2019-08-10T14:35:00,27.4980,-83.7220,80.86,11111222 
COMPS,ioos:station:USF.COMPS:C12:1,2019-08-10T15:35:00,27.4980,-83.7220,88.12,11111222 
COMPS,ioos:station:USF.COMPS:C12:1,2019-08-10T16:35:00,27.4980,-83.7220,85.27,11111222 
COMPS,ioos:station:USF.COMPS:C12:1,2019-08-10T17:35:00,27.4980,-83.7220,80.47,11111222 
COMPS,ioos:station:USF.COMPS:C12:1,2019-08-10T18:35:00,27.4980,-83.7220,82.84,11111222 
COMPS,ioos:station:USF.COMPS:C12:1,2019-08-10T19:35:00,27.4980,-83.7220,79.83,11111222 
COMPS,ioos:station:USF.COMPS:C12:1,2019-08-10T20:35:00,27.4980,-83.7220,82.36,11111222 
COMPS,ioos:station:USF.COMPS:C12:1,2019-08-10T21:35:00,27.4980,-83.7220,83.39,11111222 
COMPS,ioos:station:USF.COMPS:C12:1,2019-08-10T22:35:00,27.4980,-83.7220,80.0,11111222 
COMPS,ioos:station:USF.COMPS:C12:1,2019-08-10T23:35:00,27.4980,-83.7220,80.78,11111222 
COMPS,ioos:station:USF.COMPS:C12:1,2019-08-11T01:35:00,27.4980,-83.7220,83.98,11111222 
COMPS,ioos:station:USF.COMPS:C12:1,2019-08-11T02:35:00,27.4980,-83.7220,82.76,11111222 
COMPS,ioos:station:USF.COMPS:C12:1,2019-08-11T03:35:00,27.4980,-83.7220,81.74,11111222 
COMPS,ioos:station:USF.COMPS:C12:1,2019-08-11T04:35:00,27.4980,-83.7220,81.93,11111222 
COMPS,ioos:station:USF.COMPS:C12:1,2019-08-11T05:35:00,27.4980,-83.7220,82.06,11111222 
COMPS,ioos:station:USF.COMPS:C12:1,2019-08-11T06:35:00,27.4980,-83.7220,81.99,11111222 
COMPS,ioos:station:USF.COMPS:C12:1,2019-08-11T07:35:00,27.4980,-83.7220,82.31,11111222 
COMPS,ioos:station:USF.COMPS:C12:1,2019-08-11T08:35:00,27.4980,-83.7220,81.75,11111222 
COMPS,ioos:station:USF.COMPS:C12:1,2019-08-11T09:35:00,27.4980,-83.7220,81.33,11111222 
COMPS,ioos:station:USF.COMPS:C12:1,2019-08-11T10:35:00,27.4980,-83.7220,81.9,11111222 
COMPS,ioos:station:USF.COMPS:C12:1,2019-08-11T11:35:00,27.4980,-83.7220,86.03,11111222 
COMPS,ioos:station:USF.COMPS:C12:1,2019-08-11T12:35:00,27.4980,-83.7220,82.31,11111222 
COMPS,ioos:station:USF.COMPS:C12:1,2019-08-11T13:35:00,27.4980,-83.7220,84.29,11111222 
COMPS,ioos:station:USF.COMPS:C12:1,2019-08-11T14:35:00,27.4980,-83.7220,83.76,11111222 
COMPS,ioos:station:USF.COMPS:C12:1,2019-08-11T15:35:00,27.4980,-83.7220,86.9,11111222 
COMPS,ioos:station:USF.COMPS:C12:1,2019-08-11T16:35:00,27.4980,-83.7220,84.67,11111222 
COMPS,ioos:station:USF.COMPS:C12:1,2019-08-11T17:35:00,27.4980,-83.7220,88.33,11111222 
COMPS,ioos:station:USF.COMPS:C12:1,2019-08-11T18:35:00,27.4980,-83.7220,84.73,11111222 
COMPS,ioos:station:USF.COMPS:C12:1,2019-08-11T19:35:00,27.4980,-83.7220,87.06,11111222 
COMPS,ioos:station:USF.COMPS:C12:1,2019-08-11T20:35:00,27.4980,-83.7220,84.66,11111222 
COMPS,ioos:station:USF.COMPS:C12:1,2019-08-11T21:35:00,27.4980,-83.7220,82.61,11111222 
COMPS,ioos:station:USF.COMPS:C12:1,2019-08-11T22:35:00,27.4980,-83.7220,82.32,11111222 
COMPS,ioos:station:USF.COMPS:C12:1,2019-08-11T23:35:00,27.4980,-83.7220,82.34,11111222 
COMPS,ioos:station:USF.COMPS:C12:1,2019-08-12T06:35:00,27.4980,-83.7220,86.8,11111222 
COMPS,ioos:station:USF.COMPS:C12:1,2019-08-12T09:35:00,27.4980,-83.7220,83.6,11111222 
COMPS,ioos:station:USF.COMPS:C12:1,2019-08-12T12:35:00,27.4980,-83.7220,81.56,11111222 
COMPS,ioos:station:USF.COMPS:C12:1,2019-08-12T13:35:00,27.4980,-83.7220,80.65,11111222 
COMPS,ioos:station:USF.COMPS:C12:1,2019-08-12T14:35:00,27.4980,-83.7220,80.92,11111222 
COMPS,ioos:station:USF.COMPS:C12:1,2019-08-12T15:35:00,27.4980,-83.7220,81.54,11111222 
COMPS,ioos:station:USF.COMPS:C12:1,2019-08-12T16:35:00,27.4980,-83.7220,80.56,11111222 
COMPS,ioos:station:USF.COMPS:C12:1,2019-08-12T17:35:00,27.4980,-83.7220,80.78,11111222 
COMPS,ioos:station:USF.COMPS:C12:1,2019-08-12T18:35:00,27.4980,-83.7220,80.83,11111222 
COMPS,ioos:station:USF.COMPS:C12:1,2019-08-12T19:35:00,27.4980,-83.7220,81.66,11111222 
COMPS,ioos:station:USF.COMPS:C12:1,2019-08-12T20:35:00,27.4980,-83.7220,82.6,11111222 
COMPS,ioos:station:USF.COMPS:C12:1,2019-08-12T21:35:00,27.4980,-83.7220,82.32,11111222 
COMPS,ioos:station:USF.COMPS:C12:1,2019-08-12T22:35:00,27.4980,-83.7220,81.18,11111222 
COMPS,ioos:station:USF.COMPS:C12:1,2019-08-12T23:35:00,27.4980,-83.7220,79.59,11111222 
COMPS,ioos:station:USF.COMPS:C12:1,2019-08-13T00:35:00,27.4980,-83.7220,81.28,11111222 
COMPS,ioos:station:USF.COMPS:C12:1,2019-08-13T01:35:00,27.4980,-83.7220,81.24,11111222 